Orbital Elements
Epoch 2005 Aug. 18.0 TT = JDT 2453600.5
T 2005 Sept. 3.21788 TT MPC
q 1.7296773 (2000.0) P Q
n 0.14885284 Peri. 346.84357 +0.00543246 -0.93067475
a 3.5261271 Node 101.91975 +0.94798994 -0.11163002
e 0.5094683 Incl. 21.95441 +0.31825394 +0.34840099
P 6.62
From 316 observations 1998 Nov. 13-2012 Mar. 13, mean residual 0".7.
Nongravitational parameters A1 = +0.11, A2 = -0.1803.
|